Theta_e
330 329 327 326 324 323 322 320 319 317 316 314 313 313 313 312 312 312 311 311 310 309 309 310 309 309 309 308 308 307 306 306 305 304 303 301 300 300 300 300 299 299
329 328 326 325 323 321 320 319 318 316 315 313 313 313 312 312 311 310 309 309 309 309 309 309 309 309 308 308 307 306 306 304 303 302 300 299 299 300 300 299 299 299
328 327 326 324 322 320 319 318 317 315 314 313 313 312 312 311 310 309 308 309 308 308 308 308 308 308 307 307 306 305 304 303 301 300 299 299 299 299 299 299 298 298
327 326 325 324 321 319 318 316 315 314 314 313 312 312 311 311 310 309 309 308 308 307 307 307 307 307 306 305 305 303 302 301 299 299 299 299 298 298 298 298 298 298
325 324 324 322 320 319 317 315 313 313 313 312 311 310 310 310 310 309 309 308 307 307 306 306 305 305 305 304 303 301 300 299 299 298 298 298 298 298 298 298 298 298
323 322 321 320 318 317 316 314 312 312 311 310 310 309 310 309 309 309 308 307 306 306 305 305 304 304 303 302 301 300 299 299 298 298 298 298 298 298 298 298 298 298
321 321 320 318 317 316 314 313 312 310 309 309 308 308 308 309 309 308 307 306 306 305 305 304 303 302 301 300 300 299 299 298 298 298 298 298 298 298 298 298 298 298
320 319 318 317 316 314 313 312 311 309 308 307 307 306 306 308 308 307 306 306 305 304 304 303 302 301 300 299 299 299 298 298 298 298 298 298 298 298 298 298 298 298
318 317 317 315 314 312 311 310 309 307 307 306 306 305 305 307 307 307 306 305 304 304 303 302 301 299 298 299 299 299 298 298 298 298 298 298 298 298 298 297 297 297
317 316 315 314 312 310 308 307 307 306 306 305 304 303 304 306 307 306 305 305 304 303 302 301 299 298 298 299 299 298 298 298 298 298 298 298 298 297 297 296 296 296
316 315 314 312 310 308 307 306 306 305 305 304 302 302 304 306 306 305 305 304 303 303 301 299 297 297 298 298 298 298 298 298 298 297 297 297 296 296 296 296 296 296
314 313 313 310 308 306 306 305 305 304 304 303 300 300 304 306 305 305 304 303 303 302 299 297 297 297 298 298 298 298 298 298 297 297 296 296 296 296 296 296 296 296
313 312 311 309 306 305 305 304 304 303 302 300 298 300 304 305 305 304 303 303 302 300 298 297 298 298 298 298 298 298 298 297 297 297 296 296 296 296 296 295 295 296
312 311 309 307 305 304 303 303 301 300 298 297 298 301 305 305 304 304 303 302 302 300 298 298 299 298 298 298 298 298 298 297 297 297 296 296 296 295 295 295 296 296
310 308 306 305 304 303 302 301 299 297 297 297 299 302 304 304 304 304 302 302 301 299 298 298 299 299 299 298 298 298 298 297 297 297 296 296 295 295 295 296 296 296
309 306 305 304 303 303 302 300 298 297 297 299 300 302 304 304 304 303 302 302 301 300 299 299 300 300 299 299 299 298 298 297 297 296 296 296 295 295 296 296 296 296
308 306 304 304 303 302 302 300 298 297 298 300 301 302 302 303 303 303 302 302 301 300 300 300 300 300 300 300 299 299 298 297 297 296 296 295 295 295 296 296 296 296
307 305 304 303 303 302 302 300 297 297 299 300 301 301 302 302 302 302 302 302 301 301 300 300 300 300 300 300 300 299 298 297 297 296 295 295 296 296 296 296 296 296
306 305 304 303 302 302 301 299 296 297 299 300 300 301 301 301 302 302 302 302 301 301 301 301 301 301 300 300 300 299 298 297 296 295 295 296 296 296 296 296 295 295
306 305 303 302 302 301 299 297 296 297 299 300 300 300 301 301 301 301 301 301 301 301 301 301 301 301 301 300 300 300 298 297 296 295 295 296 296 297 297 296 295 295
305 304 303 302 301 300 298 296 296 297 298 299 300 300 300 300 301 301 301 301 301 301 301 301 301 301 301 301 300 300 298 297 295 295 296 296 297 297 297 296 295 295
305 304 303 302 300 299 298 296 296 296 297 298 299 300 300 300 300 301 301 301 301 301 301 301 301 301 301 301 300 300 299 297 296 295 296 296 296 297 296 295 295 295
305 304 303 302 301 300 299 298 296 295 296 297 298 299 300 300 300 300 300 300 301 301 301 301 301 301 301 301 300 300 299 298 297 296 296 296 296 296 296 295 295 294
305 304 303 302 301 301 301 299 296 295 296 296 298 299 299 299 300 300 300 300 301 301 301 301 301 300 301 300 300 300 299 298 298 297 296 296 296 296 295 294 294 294
305 304 303 303 302 302 301 299 297 295 295 296 297 298 298 299 299 299 299 300 300 300 301 301 300 300 300 300 299 299 299 298 298 297 296 296 296 296 295 294 294 294
305 305 304 303 303 303 302 300 297 296 295 295 296 297 297 298 298 298 298 299 299 299 300 300 300 299 299 299 299 299 299 298 298 297 296 295 296 295 295 294 293 293
Wind_Speed
25 25 25 24 23 21 19 18 17 16 16 16 18 19 18 18 17 16 17 18 19 20 20 19 18 18 19 19 19 21 21 21 21 19 19 20 21 22 23 23 23 22
25 25 25 24 23 21 20 18 17 17 18 18 19 19 19 18 17 18 20 22 21 20 18 18 19 19 20 20 19 20 20 20 20 19 20 22 22 22 22 21 20 20
25 25 24 23 23 22 20 18 17 18 19 20 19 19 19 18 19 20 22 22 20 20 20 21 21 20 20 19 19 20 20 20 21 20 22 23 22 21 20 19 19 19
25 25 24 23 23 22 20 19 20 20 21 21 20 20 19 19 19 21 22 21 21 22 23 22 22 20 19 18 18 20 21 22 22 22 23 24 22 22 22 21 22 22
25 25 24 24 23 22 20 21 22 22 22 22 22 20 20 20 20 21 21 21 22 23 23 22 21 19 18 18 19 21 23 23 23 23 25 25 24 24 24 25 25 25
25 25 25 24 23 21 21 22 23 23 23 23 23 20 20 20 20 21 22 22 23 23 22 21 20 19 18 19 22 24 24 24 24 25 27 27 26 25 25 26 26 26
25 25 25 23 22 22 23 23 23 23 24 23 22 20 19 19 20 21 22 23 23 22 21 20 20 19 19 21 24 25 25 25 25 27 28 27 26 26 26 26 26 26
25 25 24 23 23 23 23 24 24 24 24 22 21 19 18 19 21 22 22 23 23 22 22 21 20 20 21 23 26 26 26 26 26 28 28 27 27 26 26 25 25 25
24 23 23 23 23 24 24 24 24 24 22 20 20 19 18 20 21 22 23 23 23 23 22 22 22 22 23 25 26 26 26 26 27 28 27 27 27 26 24 24 24 23
23 23 24 24 24 24 25 25 24 23 21 19 19 19 20 22 22 23 24 24 24 24 23 22 23 24 25 25 25 26 26 26 26 27 27 27 25 24 23 22 22 22
25 25 25 24 25 25 25 25 24 22 20 18 18 20 22 24 24 24 24 24 24 24 23 23 24 24 25 25 24 24 24 25 26 26 25 24 23 22 21 20 20 20
27 26 26 25 26 26 25 24 23 21 19 18 18 22 25 25 25 26 25 25 24 24 24 26 26 26 25 24 23 22 22 23 24 24 23 22 21 20 19 19 19 19
28 27 27 27 27 27 25 23 21 20 19 19 20 24 27 27 27 27 26 25 25 25 27 28 28 28 26 24 23 21 21 22 22 22 21 20 19 19 18 18 19 19
29 29 29 29 28 27 25 22 21 19 19 21 23 25 27 27 28 28 27 26 25 26 27 27 27 27 26 25 23 21 20 20 20 20 20 19 18 18 18 18 19 20
30 30 30 30 28 27 24 22 21 20 21 23 24 26 28 28 28 28 27 26 25 26 25 24 23 24 23 23 23 22 20 20 19 18 18 17 17 17 17 18 18 18
30 31 30 30 29 27 25 22 21 22 23 24 25 27 28 28 28 28 27 26 26 25 24 21 20 20 20 20 20 20 20 19 18 17 16 15 15 16 16 16 17 17
31 31 31 30 29 27 25 22 22 22 24 25 27 28 27 28 28 27 27 25 25 24 22 20 19 18 17 16 16 17 17 17 17 16 15 15 14 15 15 15 15 16
31 31 31 30 29 27 25 22 22 23 25 27 27 27 27 27 27 27 26 25 23 23 21 20 18 16 15 14 14 14 15 15 15 15 15 15 14 14 14 15 15 15
31 31 31 30 29 28 25 23 23 24 26 27 27 27 27 26 26 26 25 24 23 22 20 19 17 15 14 13 13 13 13 14 14 15 15 14 14 14 13 14 15 15
32 31 31 30 30 28 25 23 23 24 26 26 27 27 26 26 26 25 24 23 22 20 19 17 16 14 13 12 13 12 12 13 14 14 14 13 12 12 13 13 14 14
32 32 31 31 30 28 26 25 24 24 25 26 26 26 26 25 25 24 23 22 20 18 17 15 14 13 13 13 14 14 12 12 12 13 12 11 10 11 11 11 12 13
31 32 32 31 31 29 27 26 24 24 24 25 26 26 25 25 24 23 22 21 19 17 16 15 14 13 13 14 14 14 12 11 11 11 9 9 9 10 10 9 10 11
33 33 32 32 31 30 28 26 25 24 23 24 26 26 25 24 23 22 21 20 18 17 16 16 16 15 15 14 14 13 11 9 9 8 8 7 7 8 8 8 9 10
33 33 33 32 31 30 29 27 25 24 23 23 25 26 26 24 23 22 20 19 18 17 16 17 17 16 15 14 13 11 9 8 7 6 5 5 5 6 7 7 8 9
33 32 32 32 31 30 29 27 26 25 24 23 24 26 26 25 23 22 20 18 17 16 16 16 16 16 14 13 13 11 8 7 6 5 4 4 5 6 6 7 8 8
34 33 32 31 30 29 28 27 26 25 24 24 25 25 26 24 23 22 20 18 17 15 14 14 14 15 14 12 12 10 8 7 6 5 5 5 4 5 5 6 8 8
Wind_Direction
167 165 163 162 161 159 157 154 150 146 139 131 127 126 127 126 124 120 116 112 110 111 112 113 111 109 108 106 101 94 89 84 79 73 69 70 72 73 70 66 64 66
168 167 166 162 159 158 156 153 150 145 138 133 131 131 130 128 123 119 117 115 113 112 113 114 114 113 109 105 98 92 88 83 78 74 73 75 75 74 71 67 64 65
169 169 167 164 161 157 154 150 148 145 140 137 137 135 133 130 126 122 120 117 113 112 113 113 113 112 107 102 96 91 87 84 82 81 80 78 74 72 70 69 68 67
169 168 167 165 161 156 152 149 147 147 145 142 141 139 137 135 132 128 124 120 116 114 113 112 110 107 103 98 94 91 90 88 87 85 82 78 74 73 72 72 72 71
167 166 165 162 158 154 152 150 149 149 147 144 142 141 140 138 135 131 127 122 118 116 113 110 106 102 99 96 95 96 96 91 87 85 82 79 77 76 75 75 75 73
163 162 162 159 155 154 153 152 150 149 146 144 143 142 142 140 135 132 129 124 120 117 113 108 104 101 100 100 100 100 96 91 88 86 84 81 80 79 78 77 76 75
160 159 158 156 154 155 155 153 151 148 146 144 143 142 142 140 135 132 129 125 121 117 112 108 105 103 103 105 105 101 94 91 90 89 86 84 83 81 80 79 78 75
158 157 157 155 155 155 154 152 150 148 147 145 142 141 142 141 137 133 130 127 122 116 112 109 107 106 107 109 108 101 95 93 92 90 88 86 85 83 81 79 76 72
157 156 156 156 155 154 152 151 149 148 149 147 143 141 142 142 139 135 132 128 122 117 115 112 109 109 110 110 107 102 98 95 93 91 90 88 86 84 80 76 71 65
157 156 156 155 153 152 150 149 149 149 151 148 144 143 144 143 140 137 134 129 124 121 117 113 111 111 110 108 106 104 101 98 96 93 91 89 86 82 76 70 65 60
156 156 155 154 152 151 150 150 150 151 151 148 146 146 145 143 141 138 136 131 126 123 118 114 112 111 109 107 107 107 104 102 100 97 93 89 84 79 73 66 60 54
155 156 156 154 153 152 151 152 152 152 151 149 149 148 146 144 141 139 137 132 128 125 119 114 110 107 106 107 109 110 108 105 103 99 94 89 83 76 69 62 56 50
156 157 157 156 154 153 152 152 153 153 152 150 150 150 147 144 142 140 137 134 130 126 120 113 108 104 102 104 108 109 109 108 104 100 94 87 80 73 66 59 53 48
157 158 157 156 154 152 151 150 151 152 149 148 149 149 147 146 144 142 138 135 133 129 123 115 109 105 101 101 104 106 108 107 104 100 93 87 80 72 65 59 52 49
157 156 156 155 153 151 149 148 148 147 145 146 147 147 147 146 145 143 140 137 134 132 127 120 114 110 106 101 100 101 103 103 101 98 93 87 80 73 65 59 53 49
157 155 154 154 152 150 148 146 145 145 144 145 145 146 146 145 145 144 142 139 136 135 132 126 122 119 115 108 101 98 99 100 98 95 92 88 80 73 65 57 52 47
157 155 154 154 152 150 148 145 145 145 145 144 144 144 144 145 145 144 142 141 139 138 136 132 130 129 125 119 109 101 97 98 98 95 93 89 80 71 62 54 49 46
158 155 154 153 152 150 148 146 146 147 147 146 145 145 145 145 145 143 143 143 143 141 140 138 138 138 134 129 122 110 99 95 96 96 94 89 79 67 56 49 45 44
158 156 153 152 152 151 148 147 148 149 150 149 147 146 146 145 144 143 143 145 146 145 143 142 142 144 141 137 133 123 106 95 94 96 95 86 73 60 50 43 42 42
158 156 153 153 153 151 149 149 149 150 152 153 151 150 149 146 145 145 144 146 148 146 146 146 145 147 147 144 143 136 115 100 98 99 94 82 67 55 45 41 41 42
158 156 155 154 153 152 150 149 149 149 152 155 155 154 152 149 148 147 146 147 149 149 147 147 147 150 154 152 148 143 126 106 103 103 93 78 65 51 42 42 46 46
158 157 156 156 155 153 152 150 148 149 152 155 156 155 154 152 150 150 148 147 148 150 147 143 143 149 158 159 153 146 136 118 108 104 92 77 63 49 44 49 51 48
161 160 159 158 158 156 154 152 150 149 151 156 157 155 155 155 153 151 151 149 148 148 144 139 140 146 154 159 158 152 145 133 118 107 94 78 60 49 50 57 57 51
162 162 161 162 162 160 157 155 152 150 152 155 156 155 155 156 155 152 151 152 151 147 143 140 140 144 152 157 159 158 155 147 133 118 106 87 64 60 61 63 64 57
165 165 165 166 165 164 161 158 154 151 151 152 153 154 153 154 155 153 151 152 154 152 150 147 142 143 149 154 154 156 160 157 149 142 132 110 78 74 73 67 67 62
170 168 168 168 168 168 165 162 157 153 151 150 150 150 150 151 154 154 151 152 156 158 158 158 155 152 152 155 156 158 162 166 171 171 151 123 85 77 79 70 66 62